#timestamp,LO_Frequency,Hit,StdDev 
1646359215.9,286046996.7,P
1646359235.7,286046997.3,P
1646359255.5,286046997.3,P
1646359275.4,286046998.4,N
1646359295.2,286047000.5,N
1646359315.0,286047001.2,N
1646359315.9,286047001.2,N
1646359335.8,286046998.3,N
1646359355.6,286046998.5,N
1646359375.5,286047002.6,N
1646359395.3,286047002.2,N
1646359415.1,286047001.6,N
1646359435.9,286047004.4,N
1646359455.7,286047001.9,N
1646359475.6,286047001.4,N
1646359495.4,286047001.4,N
1646359515.2,286046999.8,N
1646359535.1,286047000.5,N
1646359536.0,286047000.5,N
1646359555.8,286047001.1,N
1646359575.6,286047000.9,N
1646359595.5,286047000.7,N
1646359615.3,286047001.2,N
1646359635.2,286046999.3,N
1646359655.9,286046998.2,N
1646359675.7,286046999.8,N
1646359695.6,286046999.2,N
1646359715.4,286046997.9,N
1646359735.3,286046997.3,N
1646359755.1,286046995.5,N
1646359756.0,286046995.5,N
1646359775.8,286046997.6,N
1646359795.7,286046997.4,N
1646359815.5,286046996.1,N
1646359835.3,286046995.8,N
1646359855.2,286046994.9,N
1646359875.0,286046997.2,N
1646359875.9,286046997.2,N
1646359895.8,286046996.7,N
1646359915.6,286046997.1,N
1646359935.4,286046997.4,N
1646359955.3,286046997.4,N
1646359975.1,286046995.4,N
1646359995.8,286046996.1,N
1646360015.7,286046996.4,N
1646360035.5,286046993.8,Y
1646360055.4,286046994.9,P
1646360075.2,286046997.3,N
1646360095.0,286046998.0,N
1646360095.9,286046998.0,N
1646360115.8,286046995.0,Y
1646360135.6,286046998.3,P
1646360155.5,286046999.5,N
1646360175.3,286046996.9,P
1646360195.1,286046999.5,N
1646360215.9,286046997.3,N
1646360235.7,286046997.3,N
1646360255.5,286046997.5,N
1646360275.4,286046997.7,N
1646360295.2,286046996.9,Y
1646360315.1,286047000.8,P
1646360316.0,286047000.8,N
1646360335.8,286046998.3,N
1646360355.6,286046998.8,N
1646360375.5,286046998.6,N
1646360395.3,286046998.1,N
1646360415.1,286047000.6,N
1646360435.9,286047000.0,N
1646360455.7,286047000.2,N
1646360475.6,286046999.8,N
1646360495.4,286047000.3,N
1646360515.2,286046998.4,N
1646360535.1,286046999.1,N
1646360536.0,286046999.1,N
1646360555.8,286047001.1,N
1646360575.7,286047000.7,N
1646360595.5,286046999.3,N
1646360615.3,286046999.8,N
1646360635.2,286047000.2,N
1646360655.0,286047002.5,N
1646360655.9,286047002.5,N
1646360675.7,286047002.8,N
1646360695.6,286047000.5,N
1646360715.4,286047001.0,N
1646360735.3,286046998.6,N
1646360755.1,286047000.2,N
1646360756.0,286047000.2,N
1646360775.8,286047001.6,N
1646360795.7,286047001.8,N
1646360815.5,286047002.6,N
1646360835.3,286047004.0,Y
1646360855.2,286047001.7,P
1646360875.0,286047002.1,N
1646360875.9,286047002.1,N
1646360895.8,286047000.5,N
1646360915.6,286047001.2,N
1646360935.4,286047001.2,N
1646360955.3,286047001.1,N
1646360975.1,286046998.8,N
1646360995.9,286046999.3,N
1646361015.7,286046999.1,N
1646361035.5,286046999.1,N
1646361055.4,286046999.1,N
1646361075.2,286046998.1,N
1646361095.1,286047000.8,N
1646361096.0,286047000.8,N
1646361115.8,286047001.0,N
1646361135.6,286047000.4,N
1646361155.5,286046998.3,N
1646361175.3,286047000.6,N
1646361195.1,286046999.8,N
1646361215.9,286047000.3,N
1646361235.7,286046998.8,N
1646361255.6,286047001.2,N
1646361275.4,286046999.2,N
1646361295.2,286046999.2,N
1646361315.1,286046999.6,N
1646361316.0,286046999.6,N
1646361335.8,286046999.1,N
1646361355.6,286046996.9,N
1646361375.5,286046998.9,N
1646361395.3,286046999.4,N
1646361415.2,286047001.2,N
1646361435.9,286046998.7,N
1646361455.7,286046996.8,N
1646361475.6,286046995.3,Y
1646361495.4,286046997.3,P
1646361515.2,286046996.5,P
1646361535.1,286046998.4,N
1646361536.0,286046998.4,N
1646361555.8,286046996.8,Y
1646361575.7,286047002.2,P
1646361595.5,286047001.5,N
1646361615.3,286047000.4,N
1646361635.2,286047000.5,N
1646361655.0,286047000.3,N
1646361655.9,286047000.3,N
1646361675.8,286047000.7,N
1646361695.6,286046999.8,N
1646361715.4,286047004.0,Y
1646361735.3,286047002.5,P
1646361755.1,286046999.7,N
1646361775.9,286047003.9,P
1646361795.7,286047003.7,N
1646361815.5,286047005.9,Y
1646361835.4,286047001.3,P
1646361855.2,286047003.0,P
1646361875.0,286047002.2,P
1646361876.0,286047002.2,Y
1646361895.8,286047000.8,P
1646361915.6,286047001.0,N
1646361935.5,286047001.2,N
1646361955.3,286047002.4,Y
1646361975.1,286047000.5,P
1646361995.9,286046998.6,P
1646362015.7,286046998.9,N
1646362035.6,286046998.9,N
1646362055.4,286046996.9,N
1646362075.2,286046997.7,N
1646362095.1,286046996.9,N
1646362096.0,286046996.9,N
1646362115.8,286046997.0,N
1646362135.6,286046999.1,N
1646362155.5,286046998.2,N
1646362175.3,286046998.4,N
1646362195.2,286046998.8,N
1646362215.9,286046998.7,N
1646362235.7,286046998.7,N
1646362255.6,286047000.9,N
1646362275.4,286047001.5,N
1646362295.2,286047001.9,N
1646362315.1,286047004.4,N
1646362316.0,286047004.4,N
1646362335.8,286047000.9,N
1646362355.7,286047001.1,N
1646362375.5,286047001.9,N
1646362395.3,286047000.9,N
1646362415.2,286047002.6,N
1646362435.0,286047000.0,N
1646362435.9,286047000.0,N
1646362455.8,286047002.8,N
1646362475.6,286047002.4,N
1646362495.4,286047000.1,N
1646362515.3,286047000.6,N
1646362535.1,286047002.0,N
1646362555.8,286047004.4,N
1646362575.7,286047002.4,N
1646362595.5,286047002.5,N
1646362615.4,286047000.2,N
1646362635.2,286047001.7,N
1646362655.0,286046999.7,N
1646362655.9,286046999.7,N
1646362675.8,286047002.3,N
1646362695.6,286047001.9,N
1646362715.4,286047004.2,N
1646362735.3,286047003.2,N
1646362755.1,286047003.7,N
1646362775.9,286047003.4,N
1646362795.7,286047003.9,N
